CAPE
1295 1223 1016 982 945 747 964 874 817 828 750 900 1235 1082 848 874 1035 1139 1228 1550 1418 1337 1266 1217 1228 1248 1169 979 791 501 406 205 260 527 323 496 294 209 445 628 752 842 926 967 799 803 545 412 386 466 369 215 180 97 23 0 0 0 0 0 0 0 0
1414 1444 1475 1331 1004 1062 938 896 924 1178 1338 1190 1163 1288 967 848 1020 1071 1105 1339 1420 1021 1073 989 1071 1262 1280 1009 975 811 536 432 344 319 694 591 288 208 252 453 783 767 490 1174 766 521 802 649 573 605 482 458 485 325 214 34 0 0 0 0 0 0 0
1422 1419 1282 1300 1342 1303 1135 994 979 956 998 1046 951 1286 1171 960 966 1147 1028 1067 1169 1177 1064 903 914 1146 1309 1234 1136 978 732 655 511 364 332 903 342 294 170 298 480 699 661 680 803 590 604 930 846 791 724 630 566 502 359 247 188 16 0 0 0 0 0
1057 1044 1124 928 968 905 886 888 898 1003 956 824 938 959 1254 1216 1060 1174 1059 949 1028 1110 1128 923 964 1000 1264 1283 1343 1243 1026 836 827 484 293 660 745 299 198 242 457 637 626 544 556 283 494 830 1037 876 748 645 480 450 445 440 298 197 27 0 0 0 0
1322 1184 1102 991 961 1046 1034 955 948 884 904 885 1033 961 1404 1360 1239 1102 1112 980 1044 1073 1119 959 1021 964 1196 1358 1453 1354 1146 1018 1080 891 625 441 1081 439 301 148 362 544 516 709 599 821 557 685 691 966 567 646 740 472 719 478 421 308 162 43 0 0 0
1256 1338 951 880 894 1048 991 874 770 731 952 865 1080 1184 1458 1457 1315 1382 1208 1054 1014 1086 1167 1114 1148 1006 1103 1292 1360 1394 1238 1160 1068 1162 899 656 921 835 496 258 347 587 654 746 563 832 1033 1191 923 1005 982 683 612 678 813 726 486 380 304 148 2 0 0
1085 785 1170 1016 988 1031 1024 916 756 712 891 864 1021 1259 1746 1582 1348 1348 1402 1114 1100 1224 1223 1231 1140 1194 1296 1302 1270 1268 1241 1236 1219 1316 1301 1036 889 1122 1070 489 313 522 577 673 522 930 1318 1585 820 782 1275 1097 1167 1058 810 678 736 452 348 130 49 11 0
884 573 918 1209 1061 1093 1306 1429 1084 1001 1046 1393 1434 1620 1861 1698 1503 1410 1554 1355 1181 1288 1249 1261 1254 1515 1590 1201 964 851 1271 1397 1340 1319 1297 1344 1081 951 1235 1154 671 663 915 706 1176 945 1114 1255 1653 982 993 856 1016 1035 769 513 506 429 345 55 17 0 0
1475 1129 1092 1164 1166 1127 1080 1203 1532 1638 1719 1588 1804 1902 1885 1768 1657 1518 1490 1378 1237 1297 1658 1628 1172 965 992 1053 1005 902 955 1310 1078 1340 1281 1306 1229 991 1087 1228 1314 1060 897 1024 1094 1043 1030 1219 1114 798 837 872 780 678 668 548 224 258 254 90 10 0 0
1658 1332 1254 1293 1331 1404 1184 1068 1415 1629 1924 1792 1623 1348 1191 1388 1215 1122 1020 947 839 1385 1169 1078 1034 940 878 864 850 810 804 928 972 972 994 1185 1185 1164 1016 1158 1107 1348 1186 1114 1257 1060 1260 1461 913 1242 932 1103 691 578 729 497 712 576 224 44 4 0 0
1658 1343 1330 1225 1114 1152 1446 1366 1605 1752 1781 1785 1529 1346 966 1424 1264 1143 706 806 875 853 745 849 889 907 859 695 680 790 843 834 916 786 971 1188 1157 1214 1132 1149 1071 1131 1265 1235 1566 1769 2145 1587 1162 1268 1269 1213 1390 897 759 602 680 599 539 369 112 3 0
2013 1941 1686 1563 1687 1943 1553 1306 1502 1703 2055 1424 1323 1303 1130 792 1054 1062 853 713 839 897 861 898 855 822 886 723 634 677 797 864 877 840 757 850 908 953 1052 1222 1173 1125 1283 1487 1411 1809 1643 1316 1437 1365 1371 1366 1366 1121 961 1159 846 1206 1160 1202 528 48 22
2500 2203 1954 1775 1664 1545 1742 1609 1660 1885 2000 1554 1744 1293 1021 1166 866 993 870 914 994 1047 955 959 851 820 835 779 682 624 647 709 791 785 787 748 813 875 908 1200 1233 1180 1295 1314 1547 1629 1316 1137 1168 1309 1130 1033 1213 1096 1256 1605 1229 1320 1183 1280 1112 296 26
2671 2372 2123 2001 1849 1760 1712 1549 1554 1667 2099 1991 1887 1666 1358 1168 998 1150 879 1025 1221 1186 912 766 753 825 842 722 608 633 614 612 672 778 815 798 826 744 790 1056 1173 1273 1387 1210 1120 1327 1350 1370 1417 1502 1246 1140 1188 1400 1585 1387 1158 1065 1427 1112 1392 862 232
2576 2363 2156 2070 1846 1605 1568 1610 1617 1688 2080 2037 1811 1645 1313 1178 1079 993 916 1032 1114 1110 1018 870 832 918 972 781 678 604 620 658 802 826 821 766 789 878 881 1067 1011 1201 1314 1257 1037 1112 1309 1315 1291 1250 1266 1022 975 1393 1478 1280 1132 1096 1214 970 1293 929 796
2135 2055 2070 2345 2102 1762 1563 1459 1589 1668 1800 2113 1892 1594 1391 1332 1274 1171 1086 1144 987 1023 1027 943 875 893 904 797 708 655 642 661 749 772 771 829 892 1002 900 1028 1147 1087 1289 1224 1065 884 879 1148 1103 1084 1023 990 887 1136 1581 1252 1215 1040 1064 1016 1140 835 644
1099 1103 884 966 1535 1800 1461 1381 1308 1740 1888 2086 1978 1595 1425 1290 1299 1265 1209 1194 1238 1206 1059 1006 990 942 980 876 821 717 697 780 782 810 810 788 715 660 839 1114 1186 1092 1155 1111 1078 955 987 1073 1083 1063 893 879 741 1376 1547 1422 1153 1074 1008 1269 1120 778 633
553 597 985 782 1022 1686 1282 1122 1096 1207 1407 1774 2024 1771 1402 1150 1050 1001 907 1085 1494 1583 1431 1303 1130 1037 1016 1035 894 842 773 850 908 872 906 892 866 768 864 963 1034 1057 1084 1019 1005 918 953 1041 1008 791 713 587 688 733 1398 1398 1245 1091 1289 1228 1177 871 824
321 603 671 1385 2123 1602 1426 1460 1066 766 932 1383 1360 1472 1527 1146 1298 981 918 1227 1964 1850 1750 1570 1337 1198 1119 1065 1185 1115 968 843 912 953 1008 1030 976 969 903 947 920 866 857 857 849 856 912 963 946 843 679 700 735 826 1053 1291 1362 1272 1237 1270 1074 1149 991
318 426 568 497 930 2349 1300 1257 1085 764 1134 1033 1508 1458 1234 898 1188 1181 1085 1045 1617 2032 1923 1837 1660 1405 1187 1048 1170 1251 1259 1063 990 1076 1187 1146 1081 1006 963 988 995 946 842 744 729 901 903 915 966 951 763 838 810 732 1369 1072 1178 1201 1166 1093 1102 1280 1111
339 266 310 362 330 1266 1718 1083 1101 1209 1365 887 915 1389 1264 998 1015 957 948 978 1249 1850 1944 1828 1870 1713 1512 1284 1121 1241 1327 1280 1241 1260 1228 1188 1138 1043 979 1012 1053 943 782 725 622 872 1014 1017 1064 1074 992 1068 1090 1046 1385 1058 1039 1141 1120 1084 979 963 1142
380 321 233 232 335 974 800 920 804 1208 1302 1484 1309 955 1097 1144 1024 822 848 1124 1531 1667 1646 1467 1521 1426 1321 1363 1310 1304 1380 1327 1316 1360 1323 1205 1100 1066 1054 1036 1032 964 794 617 488 729 968 1138 1174 1130 1127 1085 1216 1233 1341 1234 1172 947 932 998 1015 928 967
400 251 217 192 210 369 656 666 787 1050 1598 1768 1650 1557 1202 1224 1076 1065 1159 1340 1487 1457 1282 1199 1275 1336 1352 1066 1222 1349 1439 1396 1381 1395 1402 1368 1280 1138 1045 1044 991 958 875 654 426 615 928 1077 1161 1165 1199 1270 1246 1372 1504 1416 1181 1109 1229 1246 1077 1030 1012
754 380 209 313 419 849 477 889 1180 1519 1463 1619 1482 1519 1452 1371 1398 1321 1310 1318 1375 1184 1029 1104 1196 1205 1110 1187 1331 1320 1536 1498 1436 1421 1386 1368 1334 1232 1092 1015 943 904 881 673 403 447 810 1010 1132 1158 1229 1446 1491 1504 1600 1607 1386 1317 1344 1345 1278 1191 1261
751 879 936 807 683 782 565 200 253 483 1056 1187 1258 1187 1398 1270 1187 1621 1654 1594 1433 1260 1184 1111 1139 1204 1234 1372 1373 1372 1526 1565 1516 1438 1416 1401 1365 1265 1146 1082 1029 1013 914 551 462 592 841 964 1053 1161 1219 1363 1607 1665 1675 1664 1591 1381 1392 1395 1405 1336 1278
602 735 822 977 1119 1192 833 469 250 336 592 562 373 776 964 1146 1187 1425 1462 1458 1384 1265 1198 1106 1044 1124 1307 1450 1443 1245 1490 1634 1531 1436 1406 1388 1375 1318 1209 1144 1145 1131 1014 570 431 478 632 830 1035 1143 1215 1276 1434 1629 1688 1752 1793 1582 1376 1350 1378 1400 1362
504 686 793 861 903 1057 1166 935 858 762 541 470 404 341 410 756 1254 1259 1206 1195 1144 1136 1135 1096 976 956 1084 1215 1295 1351 1255 1557 1535 1442 1368 1334 1316 1296 1209 1127 1100 1083 975 717 360 366 512 612 890 1091 1232 1330 1410 1479 1567 1578 1741 1728 1591 1454 1352 1332 1375
273 464 658 743 865 886 1022 1170 1016 949 839 679 411 413 458 505 589 705 729 919 925 877 767 923 1021 1049 994 890 908 1277 1240 1370 1494 1440 1332 1276 1268 1268 1224 1114 1047 994 897 702 487 396 587 835 860 943 1049 1161 1308 1330 1337 1477 1633 1694 1632 1605 1459 1358 1373
207 337 454 564 638 707 860 1022 1145 943 718 546 366 306 287 390 293 443 536 818 1106 899 737 652 749 909 826 638 585 1057 1133 1151 1280 1326 1346 1314 1310 1313 1258 1167 1026 938 816 676 556 446 458 771 1064 962 944 1008 1089 1135 1154 1253 1474 1569 1576 1541 1529 1437 1465
210 321 381 461 504 572 711 844 867 905 857 677 522 393 423 495 326 250 278 500 472 685 697 610 609 620 739 692 610 733 936 972 1131 1215 1291 1384 1396 1342 1267 1179 1114 932 824 740 659 525 489 566 988 1177 1066 954 910 918 1048 1171 1256 1346 1368 1339 1377 1409 1257
178 252 322 354 407 488 608 745 817 864 1053 947 727 638 487 492 464 286 103 367 364 248 204 413 525 675 668 571 656 741 886 902 977 1066 1254 1393 1374 1359 1293 1188 1101 998 841 769 781 695 578 546 810 1100 1256 1223 1059 974 1024 1202 1249 1242 1257 1130 1117 1264 1248
204 201 62 290 408 456 524 627 692 713 740 780 767 808 605 578 472 379 278 205 183 155 138 282 403 494 701 726 535 499 736 991 840 1051 1166 1275 1415 1447 1428 1234 1071 987 893 855 839 799 756 669 746 1023 1166 1243 1202 1117 1144 1185 1206 1238 1150 1099 1120 1041 1124
208 147 48 330 396 410 416 476 670 812 703 710 780 738 577 436 536 474 463 354 241 122 115 33 83 194 115 380 413 710 836 836 786 956 1110 1220 1516 1527 1512 1420 1214 1059 1012 938 985 982 916 837 840 962 1118 1146 1087 1085 1149 1180 1090 1059 1074 994 965 1006 1015
45 128 168 41 32 111 240 300 377 588 888 872 806 740 707 564 632 705 696 550 417 304 176 116 124 180 424 506 486 443 610 872 858 819 1091 1179 1478 1649 1598 1553 1462 1242 1106 1041 1015 1099 1150 1094 1004 999 1004 1050 1103 1199 1259 1078 955 935 875 864 801 800 901
0 66 58 17 26 20 259 349 425 448 742 932 914 898 778 684 577 592 703 596 700 658 517 372 522 468 523 626 593 447 363 538 605 899 703 1131 1446 1418 1589 1542 1521 1473 1318 1132 1076 1089 1176 1220 1238 1180 1086 1059 1202 1254 1260 1136 996 841 760 771 859 810 809
0 0 2 22 90 130 15 181 288 386 440 685 1094 937 713 644 520 521 554 565 462 517 674 609 421 380 411 491 444 316 315 309 507 493 655 898 1297 1219 1184 1390 1535 1554 1490 1457 1292 1080 1124 1245 1314 1315 1352 1377 1323 1280 1250 1227 1150 1045 941 799 892 948 874
0 0 0 1 3 33 80 72 37 113 140 201 177 303 689 407 289 310 308 432 438 481 777 852 656 540 312 313 412 398 244 276 435 547 557 685 905 1258 1339 1240 1187 1312 1300 1384 1503 1554 1310 1257 1391 1539 1500 1468 1422 1328 1194 1157 1118 962 1000 955 924 925 943
Wind_Speed
42 43 42 39 38 42 42 40 38 34 33 36 38 35 34 34 31 28 26 27 25 22 22 21 21 21 20 18 19 18 17 15 14 14 12 13 14 11 10 8 6 5 7 11 11 9 9 10 9 9 9 14 13 nan nan nan nan nan nan nan nan nan nan
44 46 50 47 40 40 45 46 42 37 36 36 36 36 34 33 32 29 28 26 26 25 24 24 23 22 21 20 19 19 17 16 16 14 13 14 15 13 13 8 7 5 6 8 9 7 8 10 8 11 10 9 11 12 12 nan nan nan nan nan nan nan nan
47 50 51 49 44 41 41 44 45 44 41 42 39 34 33 32 31 30 28 26 26 28 27 25 24 23 22 21 22 21 20 17 17 15 12 15 15 15 13 11 6 5 6 8 7 8 7 9 9 12 12 12 12 12 13 13 16 nan nan nan nan nan nan
43 50 51 47 45 44 42 43 47 47 44 41 41 35 32 33 32 32 30 28 28 29 29 26 26 25 24 24 25 24 21 18 17 15 14 14 16 16 15 11 7 5 7 7 8 7 8 8 8 9 11 12 12 12 14 15 15 16 nan nan nan nan nan
35 44 47 44 42 42 42 41 43 46 45 41 39 35 32 32 34 34 32 30 31 30 30 31 31 29 30 29 29 27 24 20 18 19 19 15 17 16 14 11 7 7 7 7 7 8 10 10 12 9 11 10 10 12 12 13 15 16 17 nan nan nan nan
35 42 44 43 44 44 45 42 39 43 46 43 39 34 31 30 32 35 34 33 34 34 33 35 35 33 34 34 33 32 28 24 23 24 22 19 17 16 15 11 8 8 7 7 7 9 11 11 14 11 7 9 10 11 11 14 15 17 17 19 nan nan nan
40 44 44 46 47 45 47 45 40 38 41 42 38 29 29 31 32 34 37 35 36 36 36 37 38 38 39 40 39 37 34 32 31 27 26 23 20 17 17 12 9 9 9 8 7 9 13 15 15 13 8 5 7 10 10 10 12 15 17 20 nan nan nan
39 41 32 38 43 40 40 47 47 40 36 39 37 32 30 32 34 34 37 38 37 38 38 38 41 48 51 49 42 37 34 33 31 30 28 25 21 17 16 16 12 10 10 8 8 11 16 16 16 15 14 10 7 8 10 11 12 14 13 nan nan nan nan
39 36 31 31 39 35 28 35 46 44 38 35 35 33 33 35 37 39 39 41 41 41 41 41 45 45 42 38 35 33 31 33 34 31 30 27 23 19 17 17 16 13 11 9 10 13 16 17 17 13 13 11 11 9 9 11 12 12 16 nan nan nan nan
45 41 39 37 39 39 32 29 38 46 41 38 37 39 40 49 55 63 61 56 51 46 46 43 42 44 42 38 38 38 37 38 36 33 32 32 27 23 21 18 15 15 13 11 12 15 16 18 17 15 12 11 11 10 11 12 12 11 15 nan nan nan nan
47 45 45 43 42 45 40 34 34 44 44 42 46 41 41 44 55 56 55 55 52 50 51 54 49 47 48 44 45 45 43 42 39 37 31 30 28 26 24 21 18 15 15 14 13 16 19 20 18 15 12 9 10 10 9 12 10 12 10 10 11 nan nan
48 45 45 47 47 45 45 38 34 38 43 45 45 47 44 51 56 58 61 65 61 50 47 48 48 47 48 46 45 46 45 43 40 36 33 32 31 30 26 21 20 18 17 16 15 17 19 21 19 16 14 12 10 10 8 9 9 9 10 10 10 nan nan
48 46 45 46 46 42 43 43 42 40 39 44 45 45 48 48 47 56 57 58 56 51 47 40 42 45 46 45 47 47 46 45 42 39 37 33 32 31 29 24 22 21 20 19 18 19 20 20 19 17 17 13 11 11 10 10 10 10 11 11 10 12 nan
49 49 48 46 45 42 42 45 47 45 46 44 45 50 54 52 50 54 55 53 51 52 50 46 44 44 44 44 47 48 48 46 44 42 40 36 34 33 29 26 24 23 23 21 20 21 21 22 21 18 18 17 13 12 13 12 11 9 9 9 10 11 13
51 51 49 48 46 43 41 42 44 46 48 46 45 47 51 54 52 49 50 51 52 54 55 51 47 45 43 45 46 48 48 47 46 44 41 38 35 33 31 28 27 26 24 22 21 21 23 23 23 21 19 18 15 15 14 14 13 11 10 10 11 11 10
55 56 56 52 48 44 43 41 42 44 45 47 48 48 47 52 53 50 47 49 51 54 55 55 52 44 42 46 45 44 47 48 47 45 42 38 37 34 31 29 29 31 31 27 25 23 24 24 24 24 22 21 20 16 16 16 16 13 11 12 12 12 14
52 54 44 43 43 46 46 44 44 43 43 46 49 53 53 53 54 52 50 47 50 54 54 56 55 47 42 44 43 41 44 47 47 45 42 41 39 37 32 29 29 33 35 32 29 27 26 26 27 27 25 24 21 19 19 17 16 16 13 15 13 13 15
47 50 45 40 40 43 46 48 49 45 45 46 47 51 55 53 49 52 53 46 48 52 55 55 53 50 45 45 44 43 44 46 47 45 42 41 40 38 34 30 30 33 36 35 33 31 30 27 26 28 28 26 22 20 20 18 18 17 14 14 15 13 13
44 44 46 47 41 45 43 44 43 42 44 49 47 48 53 52 47 50 47 42 43 47 54 57 54 50 46 46 49 47 44 44 45 44 42 41 40 39 34 30 31 33 34 34 34 35 35 31 27 26 28 28 26 24 20 21 19 17 15 14 15 15 13
41 41 42 47 50 48 47 40 37 37 44 41 38 44 51 48 44 46 45 45 45 45 50 55 55 52 50 49 50 50 46 42 42 44 44 42 41 39 35 33 33 34 32 31 33 36 38 37 31 26 28 30 28 25 23 22 21 18 16 15 15 14 14
39 39 40 42 46 51 50 55 53 46 46 40 31 33 43 49 46 45 45 45 42 43 47 52 53 54 53 51 50 50 47 43 41 43 44 44 42 38 36 36 35 33 31 29 30 33 36 37 35 29 30 32 31 28 25 23 24 22 19 17 18 13 14
37 37 39 42 43 49 48 48 53 55 51 46 41 31 34 44 46 45 46 47 45 43 44 49 57 55 51 51 52 50 48 44 43 43 43 44 44 41 38 37 35 32 30 27 26 28 31 36 36 32 31 33 33 31 28 26 25 24 21 19 17 18 13
35 35 37 40 42 46 49 43 46 51 50 50 50 47 42 43 45 46 44 46 48 47 46 48 52 52 49 50 49 51 51 48 45 46 45 45 45 43 40 38 36 31 28 26 26 24 26 32 34 34 34 34 34 33 29 28 26 25 24 21 19 19 17
41 37 37 39 43 46 51 47 44 48 51 50 48 50 49 44 45 46 43 44 44 44 46 49 48 46 43 40 45 49 52 51 48 47 47 46 45 43 41 39 37 34 31 29 27 23 24 28 32 34 35 36 36 35 32 27 26 26 24 23 22 20 18
42 41 40 40 42 49 53 44 40 42 48 51 48 42 45 46 44 46 48 49 44 40 41 45 45 40 40 40 44 47 49 49 50 49 48 47 46 43 42 41 40 39 36 31 30 30 28 28 31 35 37 36 34 33 33 29 25 24 25 24 23 21 20
43 41 42 42 43 44 47 46 40 38 41 46 47 42 40 42 44 46 48 48 46 40 36 37 38 38 42 46 46 47 48 47 49 49 48 46 46 44 43 44 42 41 38 31 31 32 33 31 31 34 36 35 32 32 30 26 24 24 25 24 23 22 22
42 41 41 41 42 44 48 49 48 47 46 47 48 46 41 37 39 41 44 47 47 44 38 37 34 32 37 44 48 51 51 51 49 48 47 46 46 44 41 43 43 41 38 37 35 32 30 30 32 34 38 39 34 29 30 29 24 20 21 24 24 22 23
40 40 41 43 44 45 47 48 48 51 51 48 48 47 42 41 40 40 42 45 47 45 44 38 37 34 34 39 45 50 51 53 50 48 48 46 45 45 42 41 41 39 36 37 37 33 29 28 29 31 35 37 34 30 30 31 30 28 26 26 24 24 25
38 40 41 42 44 46 48 47 46 48 52 52 50 49 48 49 46 40 37 38 41 44 47 44 43 38 31 29 37 47 48 48 46 44 43 41 42 44 43 42 42 39 37 36 35 33 31 30 32 32 32 33 33 32 29 28 30 29 27 27 27 27 28
38 40 41 42 44 46 47 47 45 45 48 51 50 50 49 48 45 41 38 37 39 45 48 48 46 42 35 27 31 39 43 46 44 42 42 42 42 43 44 43 42 41 38 36 32 33 33 34 36 36 35 34 35 35 30 29 30 29 26 24 25 28 29
38 39 41 42 44 46 46 46 45 44 45 49 52 54 52 49 47 41 36 39 43 43 44 43 47 49 45 39 37 41 42 45 45 43 43 45 47 46 43 38 39 40 40 38 37 36 35 39 38 40 40 38 37 35 30 28 31 30 27 26 25 26 29
37 38 nan 38 40 43 45 45 44 45 46 46 48 52 55 54 49 44 41 44 45 43 42 43 42 43 49 46 42 44 39 42 45 43 42 44 46 47 44 41 35 37 40 41 41 43 38 38 38 41 41 40 38 34 29 27 28 30 32 32 30 30 31
39 38 nan 36 39 42 43 43 43 44 45 45 47 51 55 56 53 51 50 47 43 40 39 nan nan 32 35 43 44 42 38 38 42 41 40 41 45 45 43 43 40 35 35 38 40 43 44 40 37 38 40 39 35 29 30 30 30 31 32 33 31 33 33
nan 41 40 nan nan 39 40 40 41 43 44 45 46 48 51 53 54 55 55 51 47 48 48 42 37 31 30 37 44 42 38 36 37 38 40 43 46 46 45 44 45 39 36 37 38 41 45 41 36 37 37 36 33 29 37 41 38 35 36 37 36 36 37
nan nan nan nan nan nan 39 40 40 43 45 45 45 46 48 52 56 58 58 54 51 51 47 37 38 35 35 39 42 41 39 35 33 34 39 47 50 51 49 49 49 44 39 35 34 39 43 41 36 38 35 34 34 39 48 46 46 46 43 42 43 42 40
nan nan nan nan nan 41 nan 42 42 43 45 46 45 46 48 52 56 59 59 57 55 54 55 54 45 49 46 44 43 41 36 36 36 42 44 46 52 54 53 49 45 40 42 37 34 37 45 43 42 38 33 36 37 45 52 52 51 51 50 48 47 45 42
nan nan nan nan nan nan nan nan nan 48 50 50 51 51 50 52 56 59 61 61 60 61 62 60 57 53 52 46 46 42 36 33 33 38 40 46 50 47 45 47 48 43 41 38 31 31 41 49 47 39 36 35 37 40 45 51 61 64 60 54 49 45 43
Wind_Direction
246 247 247 245 241 244 243 240 237 233 227 208 200 204 205 213 218 220 220 222 230 239 242 240 239 243 248 252 256 260 259 258 263 260 268 276 299 293 285 277 261 238 264 265 282 302 310 321 338 345 354 351 353 nan nan nan nan nan nan nan nan nan nan
245 247 247 245 246 245 244 241 237 233 228 221 207 205 209 210 217 220 222 223 224 233 239 239 236 240 247 248 254 257 258 253 251 255 254 272 287 289 286 271 253 239 253 265 293 310 312 320 335 341 347 345 351 353 358 nan nan nan nan nan nan nan nan
245 245 246 246 247 245 248 250 243 235 228 216 209 207 210 214 216 223 224 224 225 228 236 240 241 239 243 245 249 251 253 254 251 255 262 261 284 285 289 280 268 240 243 266 287 319 319 321 326 344 348 344 358 359 354 356 1 nan nan nan nan nan nan
246 248 248 246 245 244 247 252 246 239 236 221 209 206 211 215 220 225 226 225 226 227 232 239 243 241 242 244 245 249 250 255 254 261 262 255 267 282 286 278 270 260 270 276 291 316 307 310 320 334 342 349 2 356 2 359 359 2 nan nan nan nan nan
253 251 253 250 247 247 247 251 246 239 238 230 214 206 214 216 220 224 228 228 229 230 229 233 238 240 238 243 243 244 245 249 249 256 257 258 256 269 277 271 255 255 261 274 288 304 313 313 330 332 342 342 346 357 346 354 358 1 358 nan nan nan nan
251 251 252 246 245 248 247 248 247 237 237 236 223 209 216 226 226 226 230 231 231 231 229 231 234 240 236 238 240 242 242 242 244 246 250 250 250 256 264 259 239 243 259 271 280 290 296 296 313 320 338 340 348 342 339 346 358 360 356 6 nan nan nan
241 238 237 238 240 248 247 246 248 239 238 242 236 223 226 233 232 232 233 236 235 234 233 232 233 237 239 238 236 236 237 235 236 238 241 243 242 242 247 247 229 230 243 258 278 284 286 287 300 316 327 348 338 335 343 350 358 353 357 7 nan nan nan
245 240 238 238 233 242 250 246 245 245 242 238 234 232 238 238 239 239 237 241 242 238 238 237 235 235 234 236 236 239 243 247 248 246 244 244 243 242 237 233 228 222 238 249 265 281 280 285 294 314 321 339 343 337 350 1 3 6 356 nan nan nan nan
253 249 255 251 238 235 245 242 240 243 245 235 233 238 238 236 239 240 236 237 241 241 240 242 245 247 250 256 259 263 265 262 266 266 261 261 255 251 243 231 221 221 230 239 254 272 277 287 291 306 309 331 336 353 355 8 4 11 13 nan nan nan nan
255 252 251 256 253 244 244 246 240 240 242 241 239 232 223 224 230 230 225 224 226 234 244 242 242 242 238 240 245 249 250 246 250 262 264 267 267 264 259 252 234 221 229 235 244 264 272 279 290 297 310 325 333 345 347 5 10 6 7 nan nan nan nan
250 248 246 250 253 246 242 249 238 235 240 244 244 246 240 231 233 240 243 242 236 226 229 230 230 235 236 236 239 241 244 245 244 242 242 251 257 259 261 260 256 242 235 242 245 257 266 274 281 288 299 319 326 348 347 352 6 357 2 8 4 nan nan
246 245 245 245 248 246 242 245 253 240 235 239 239 244 247 238 229 229 233 236 239 240 234 229 227 232 238 238 241 244 246 248 248 246 244 245 243 242 244 250 256 256 253 252 254 261 265 271 278 285 294 299 313 329 343 334 347 354 349 357 2 nan nan
244 243 245 245 246 245 243 247 253 249 240 240 240 244 248 252 242 238 240 242 243 247 254 247 239 236 239 242 245 247 248 251 251 248 244 246 249 247 241 237 240 248 255 256 260 265 269 272 275 279 286 291 306 326 337 331 338 344 352 350 354 358 nan
243 242 242 244 244 244 245 245 246 246 244 244 243 242 244 250 250 243 241 245 246 247 254 260 258 249 242 245 248 250 252 253 255 251 248 249 250 253 251 242 238 239 246 255 258 264 270 277 279 279 280 287 300 309 313 317 323 331 329 348 351 353 4
240 241 241 242 240 242 244 245 244 244 246 246 245 247 248 248 248 247 244 245 246 245 246 255 262 259 250 248 250 250 252 254 255 254 253 254 257 256 255 253 251 247 244 248 254 262 270 274 279 282 284 283 284 294 300 305 315 320 328 333 350 354 350
237 236 234 238 240 241 242 239 240 242 245 246 247 250 252 249 248 248 247 249 250 249 249 249 255 260 256 253 253 254 254 256 257 257 257 256 259 259 259 256 255 253 248 247 248 254 263 273 277 280 281 279 276 281 296 304 301 316 321 331 338 345 347
235 246 240 236 237 241 241 239 239 241 244 247 248 251 256 256 252 249 249 252 251 250 252 252 251 255 258 256 254 256 255 256 257 258 260 260 260 261 264 263 258 255 253 254 250 250 254 264 271 276 277 273 277 285 290 295 306 304 315 318 331 344 343
227 237 246 235 229 239 241 239 238 238 241 246 250 253 255 259 260 253 246 245 248 248 252 256 255 255 257 255 252 254 255 254 255 257 259 261 263 265 267 266 263 258 255 257 257 255 255 259 265 270 274 275 275 276 280 294 301 303 306 314 318 333 338
220 226 231 236 235 240 241 236 235 236 239 237 242 249 253 253 256 256 253 250 251 250 249 253 256 255 257 256 249 248 251 251 253 256 257 260 264 266 267 267 263 260 256 258 261 262 262 262 259 263 271 272 272 272 278 284 289 297 305 308 309 319 334
222 219 227 229 231 235 244 245 239 234 239 236 234 246 251 258 257 256 255 250 251 254 250 250 254 255 257 256 247 244 248 249 249 251 254 258 263 266 265 263 263 262 260 259 260 264 267 262 256 260 267 271 270 270 276 280 286 292 298 300 301 310 328
223 217 217 224 229 235 236 237 238 240 245 246 245 248 251 252 252 252 254 252 254 257 252 249 251 252 255 252 243 241 246 248 249 252 253 255 258 262 263 260 260 264 266 265 263 262 265 263 255 253 262 266 268 268 272 278 283 288 291 293 297 309 322
224 219 215 216 224 239 245 239 234 239 243 243 246 250 253 253 252 252 250 250 256 261 255 249 249 250 245 239 238 241 245 247 249 252 254 255 255 258 261 260 259 263 271 275 274 263 264 264 260 258 260 266 268 270 270 274 279 285 286 292 299 301 315
221 222 219 217 221 234 250 243 239 237 240 241 244 253 256 250 245 248 250 251 254 257 258 253 254 260 253 243 237 241 243 245 248 249 252 255 254 256 260 260 259 270 277 280 275 269 270 272 270 263 260 265 271 272 273 275 279 282 285 294 302 304 314
218 221 224 222 223 229 241 241 235 232 233 238 244 251 254 251 250 251 250 252 256 258 259 256 261 263 260 251 245 244 243 243 247 249 251 255 256 255 254 258 259 262 265 266 268 277 274 272 273 270 266 267 270 273 275 278 278 283 286 290 293 298 307
221 222 222 220 223 232 247 242 233 232 233 230 231 242 253 254 249 251 251 252 255 258 259 260 262 257 255 252 250 249 246 244 245 247 250 253 254 252 249 251 255 255 257 261 261 264 268 273 274 270 264 262 266 274 280 280 279 279 284 286 289 298 302
219 224 225 225 225 225 231 239 237 239 238 237 236 234 243 250 250 251 252 252 252 253 257 266 263 256 251 251 255 256 251 250 249 249 250 253 252 250 249 248 250 255 258 270 264 265 268 269 272 272 263 258 261 270 274 278 275 274 278 284 290 295 301
223 224 227 228 228 227 228 230 233 236 234 231 230 235 240 242 245 248 251 254 251 249 252 266 276 268 260 256 258 261 256 255 254 250 250 253 250 247 250 251 251 255 258 261 259 264 272 275 269 263 257 251 250 259 270 277 280 274 268 279 287 294 295
226 225 227 230 233 230 229 231 229 231 234 233 228 228 236 245 243 238 238 244 249 248 246 256 269 280 278 267 262 262 257 255 254 251 248 249 247 246 248 251 252 254 258 261 260 265 269 270 267 265 263 257 251 253 263 271 272 272 273 272 278 288 289
234 229 228 232 233 232 231 230 231 234 235 233 230 228 230 235 240 239 236 237 247 250 246 252 260 269 283 282 270 257 253 252 251 248 246 246 245 245 247 252 251 249 251 258 266 276 275 265 261 264 268 265 258 253 256 269 277 276 278 282 282 283 286
233 232 231 230 231 231 229 230 230 231 230 230 230 230 230 236 240 242 242 241 237 237 239 240 245 253 264 281 272 256 251 250 251 251 248 249 249 248 247 252 254 250 248 247 256 274 280 275 262 264 266 267 263 258 256 260 272 280 286 288 290 293 291
230 229 230 229 228 230 231 233 233 232 230 227 227 227 230 232 234 236 241 245 242 241 242 240 238 240 240 251 267 261 257 252 250 252 254 253 248 246 247 254 256 250 245 247 255 265 275 272 265 266 265 264 263 261 258 259 260 268 283 285 286 289 292
229 226 nan 225 227 227 229 232 233 234 230 227 227 230 231 230 229 228 229 233 236 237 237 241 242 242 250 250 259 260 262 254 249 250 253 250 243 242 244 249 255 250 246 250 260 266 265 261 262 266 266 262 260 261 261 263 264 267 270 273 275 278 273
231 227 nan 222 224 226 227 228 230 233 234 234 231 228 228 229 227 227 228 231 232 229 224 nan nan 249 242 248 251 247 247 245 248 250 249 243 240 241 243 244 248 252 250 250 256 262 267 267 260 261 261 255 252 256 259 262 264 263 264 270 275 276 278
nan 224 226 nan nan 224 227 228 229 233 235 235 235 233 231 228 224 224 228 232 229 223 219 218 227 242 250 246 243 242 237 239 242 245 242 238 237 241 243 243 244 255 258 256 256 260 264 267 264 258 256 247 249 260 261 257 261 267 259 259 261 264 268
nan nan nan nan nan nan 227 228 232 233 236 238 237 236 236 231 226 223 224 227 229 228 227 227 226 244 252 249 247 257 249 239 241 241 236 237 238 239 240 238 234 246 262 264 265 262 259 259 263 254 251 251 257 265 261 259 259 260 260 257 256 257 261
nan nan nan nan nan 227 nan 229 230 232 234 237 239 239 237 232 226 225 225 225 227 229 230 230 230 237 246 246 245 254 264 256 231 225 228 231 235 238 240 239 237 239 246 258 268 266 255 253 253 250 252 255 264 271 263 256 257 260 261 260 258 257 261
nan nan nan nan nan nan nan nan nan 233 232 235 237 237 238 234 228 225 224 223 225 226 228 231 236 241 247 248 244 245 253 257 253 245 240 235 234 230 232 239 242 244 243 247 257 260 252 250 248 252 251 254 260 267 264 262 255 251 250 251 258 262 267